W1RCY Weather Reports


time (UTC)temp
C
wind
direction
speed
KPH
gust
KPH
rain 1hr
cm
rain 24hr
cm
rain mn
cm
humidity
%
barometer
mb
20260507060905 8 258 1.6 4.8 0.00 0.00 0.00 96 1004.7
20260507060401 8 351 4.8 8.0 0.00 0.00 0.00 96 1004.3
20260507055852 8 261 4.8 9.7 0.00 0.00 0.00 96 1004.5
20260507055347 8 254 4.8 8.0 0.00 0.00 0.00 96 1004.3
20260507054845 8 303 3.2 3.2 0.00 0.00 0.00 96 1004.3
20260507054340 8 283 1.6 3.2 0.00 0.00 0.00 96 1004.2
20260507053838 8 340 4.8 9.7 0.00 0.00 0.00 97 1004.0
20260507053336 8 290 3.2 3.2 0.00 0.00 0.00 97 1004.2
20260507052834 8 308 4.8 4.8 0.00 0.00 0.00 97 1004.0
20260507052331 8 240 3.2 9.7 0.00 0.00 0.00 97 1004.0
20260507051828 8 278 6.4 9.7 0.00 0.00 0.00 97 1004.3
20260507051326 8 240 3.2 11.3 0.00 0.00 0.00 97 1004.1
20260507050822 8 255 6.4 11.3 0.00 0.00 0.00 97 1004.0
20260507050319 8 245 8.0 12.9 0.00 0.00 0.00 97 1003.6
20260507045816 8 288 6.4 11.3 0.00 0.00 0.00 97 1003.7
20260507045312 8 337 8.0 16.1 0.00 0.00 0.00 98 1003.9
20260507044809 9 326 8.0 11.3 0.00 0.00 0.00 98 1004.2
20260507044306 9 245 6.4 11.3 0.00 0.00 0.00 98 1004.1
20260507043802 9 306 4.8 9.7 0.00 0.00 0.00 98 1003.9
20260507043259 9 202 8.0 11.3 0.00 0.00 0.00 98 1004.3
20260507042755 9 244 8.0 16.1 0.00 0.00 0.00 98 1004.3
20260507042250 9 273 11.3 12.9 0.00 0.00 0.00 99 1003.9
20260507041748 9 257 9.7 14.5 0.00 0.00 0.00 99 1003.9
20260507041244 9 326 6.4 12.9 0.00 0.00 0.00 99 1003.8
20260507040741 10 216 4.8 9.7 0.00 0.00 0.00 99 1003.7
20260507040237 10 350 8.0 12.9 0.00 0.00 0.00 99 1003.7
20260507035734 10 285 9.7 16.1 0.00 0.64 0.64 99 1003.7
20260507035229 10 308 11.3 12.9 0.18 0.64 0.64 99 1004.0
20260507034727 10 343 6.4 9.7 0.18 0.64 0.64 99 1003.7
20260507034223 10 265 9.7 12.9 0.13 0.61 0.61 99 1003.8
20260507033722 10 242 8.0 12.9 0.13 0.61 0.61 99 1004.0
20260507033219 10 300 8.0 16.1 0.18 0.58 0.58 99 1003.9
20260507032717 11 260 11.3 16.1 0.18 0.58 0.58 98 1003.9
20260507032212 11 327 16.1 22.5 0.00 0.56 0.56 99 1003.7
20260507031709 11 324 8.0 12.9 0.00 0.56 0.56 99 1004.0
20260507031206 11 269 11.3 16.1 0.00 0.56 0.56 99 1003.9
20260507030703 11 326 12.9 17.7 0.00 0.56 0.56 99 1003.8
20260507030200 11 242 12.9 17.7 0.00 0.56 0.56 99 1003.7
20260507025657 11 169 9.7 11.3 0.00 0.56 0.56 99 1003.7
20260507025154 12 122 8.0 12.9 0.00 0.56 0.56 99 1003.4
20260507024652 12 288 8.0 11.3 0.00 0.56 0.56 99 1003.5
20260507024149 12 306 9.7 12.9 0.00 0.56 0.56 99 1003.3
20260507023644 12 50 11.3 12.9 0.00 0.56 0.56 99 1003.3
20260507023142 12 320 8.0 11.3 0.13 0.56 0.56 99 1003.6
20260507022639 12 82 11.3 14.5 0.13 0.56 0.56 99 1003.7
20260507022135 12 297 6.4 12.9 0.00 0.53 0.53 99 1003.4
20260507021631 12 268 11.3 14.5 0.18 0.53 0.53 99 1003.3
20260507021127 13 179 11.3 12.9 0.00 0.51 0.51 99 1003.3
20260507020625 13 355 8.0 11.3 0.00 0.51 0.51 99 1003.6
20260507020121 14 257 3.2 8.0 0.00 0.51 0.51 99 1003.0
20260507015620 14 252 3.2 4.8 0.00 0.51 0.51 99 1003.4
20260507015117 14 183 8.0 14.5 0.00 0.51 0.51 99 1003.3
20260507014613 14 165 6.4 12.9 0.00 0.51 0.51 99 1003.2
20260507014109 14 193 4.8 12.9 0.00 0.51 0.51 99 1003.2
20260507013606 14 224 3.2 8.0 0.00 0.51 0.51 99 1003.2
20260507013103 14 164 8.0 11.3 0.00 0.51 0.51 99 1003.3
20260507012600 14 209 3.2 9.7 0.00 0.51 0.51 99 1003.3
20260507012056 14 166 3.2 12.9 0.00 0.51 0.51 99 1003.3
20260507011554 14 158 6.4 9.7 0.00 0.51 0.51 99 1003.3
20260507011050 14 221 1.6 11.3 0.00 0.51 0.51 99 1003.2
20260507010545 14 239 1.6 8.0 0.00 0.51 0.51 99 1003.3
20260507010041 14 174 6.4 12.9 0.00 0.51 0.51 99 1003.3
20260507005539 14 188 6.4 17.7 0.00 0.51 0.51 99 1003.2
20260507005035 14 206 8.0 12.9 0.00 0.51 0.51 99 1003.2
20260507004532 14 163 11.3 12.9 0.00 0.51 0.51 99 1003.1
20260507004029 14 190 14.5 16.1 0.00 0.51 0.51 99 1003.4
20260507003525 14 173 17.7 20.9 0.00 0.51 0.51 99 1003.5
20260507003020 14 200 11.3 20.9 0.00 0.51 0.51 99 1003.2
20260507002517 14 159 8.0 11.3 0.00 0.51 0.51 99 1003.2
20260507002013 14 212 8.0 16.1 0.00 0.51 0.51 99 1003.1
20260507001509 14 166 8.0 16.1 0.00 0.51 0.51 99 1003.0
20260507001007 14 164 6.4 12.9 0.00 0.51 0.51 99 1002.9
20260507000503 14 180 11.3 14.5 0.00 0.51 0.51 99 1003.1
20260506235958 14 182 11.3 24.1 0.00 0.51 0.51 99 1003.0
20260506235456 14 188 11.3 17.7 0.00 0.51 0.51 99 1002.8
20260506234952 14 180 14.5 17.7 0.00 0.51 0.51 99 1003.0
20260506234449 14 222 8.0 14.5 0.00 0.51 0.51 99 1003.0
20260506233947 14 168 6.4 20.9 0.00 0.51 0.51 99 1003.0
20260506233443 14 181 19.3 24.1 0.00 0.51 0.51 99 1003.0
20260506232940 14 169 14.5 22.5 0.00 0.51 0.51 99 1003.2
20260506232436 14 184 16.1 22.5 0.00 0.51 0.51 99 1003.1
20260506231931 14 192 14.5 27.4 0.00 0.51 0.51 99 1003.1
20260506231429 14 193 11.3 17.7 0.00 0.51 0.51 99 1003.0
20260506230926 14 183 12.9 20.9 0.00 0.51 0.51 99 1003.1
20260506230423 14 198 12.9 17.7 0.00 0.51 0.51 99 1003.1
20260506225920 14 178 12.9 17.7 0.00 0.51 0.51 99 1003.0
20260506225417 14 178 8.0 25.7 0.00 0.51 0.51 99 1003.2
20260506224914 14 169 14.5 24.1 0.00 0.51 0.51 99 1003.3
20260506224411 14 171 11.3 27.4 0.00 0.51 0.51 99 1003.1
20260506223907 15 168 17.7 24.1 0.00 0.51 0.51 99 1003.1
20260506223403 15 193 8.0 14.5 0.00 0.51 0.51 99 1003.3
20260506222900 15 185 9.7 20.9 0.00 0.51 0.51 99 1003.1
20260506222356 15 161 16.1 24.1 0.00 0.51 0.51 99 1003.3
20260506221853 15 182 12.9 17.7 0.00 0.51 0.51 99 1003.3
20260506221350 15 189 17.7 24.1 0.00 0.51 0.51 99 1003.4
20260506220848 15 187 22.5 29.0 0.00 0.51 0.51 99 1003.1
20260506220343 15 204 19.3 24.1 0.00 0.51 0.51 99 1003.3
20260506215840 15 213 14.5 20.9 0.00 0.51 0.51 99 1003.5
20260506215336 15 152 12.9 17.7 0.00 0.51 0.51 99 1003.5
20260506214833 15 187 12.9 22.5 0.00 0.51 0.51 99 1003.7
20260506214329 15 160 11.3 22.5 0.00 0.51 0.51 99 1003.7
20260506213828 15 192 12.9 24.1 0.00 0.51 0.51 99 1003.9
20260506213325 15 183 12.9 14.5 0.00 0.51 0.51 99 1003.6
20260506212822 15 167 14.5 24.1 0.00 0.51 0.51 99 1003.7
20260506212317 15 182 19.3 25.7 0.00 0.51 0.51 99 1003.8
20260506211813 15 155 12.9 20.9 0.00 0.51 0.51 99 1003.7
20260506211309 15 217 8.0 16.1 0.00 0.51 0.51 99 1004.2
20260506210807 15 175 14.5 17.7 0.13 0.51 0.51 99 1003.7
20260506210303 15 168 11.3 14.5 0.13 0.51 0.51 99 1003.8
20260506205800 15 188 9.7 14.5 0.18 0.48 0.48 99 1004.1
20260506205256 15 166 6.4 8.0 0.18 0.48 0.48 99 1003.8
20260506204753 15 184 9.7 12.9 0.13 0.46 0.46 99 1004.0
20260506204251 15 182 6.4 12.9 0.13 0.46 0.46 99 1004.1
20260506203748 15 189 8.0 11.3 0.00 0.43 0.43 99 1004.2
20260506203245 15 171 8.0 12.9 0.18 0.43 0.43 99 1004.2
20260506202742 15 167 8.0 12.9 0.18 0.43 0.43 99 1004.3
20260506202239 15 185 8.0 11.3 0.30 0.41 0.41 99 1004.2
20260506201736 15 212 3.2 12.9 0.43 0.41 0.41 99 1004.1
20260506201232 15 209 3.2 8.0 0.13 0.36 0.36 99 1004.4
20260506200729 15 170 6.4 8.0 0.18 0.33 0.33 99 1004.3
20260506200226 15 149 4.8 8.0 0.18 0.33 0.33 99 1004.4
20260506195722 15 202 1.6 4.8 0.00 0.30 0.30 99 1004.2
20260506195219 15 175 4.8 8.0 0.00 0.30 0.30 99 1004.3
20260506194716 15 198 0.0 4.8 0.00 0.30 0.30 99 1004.2
20260506194212 15 178 8.0 12.9 0.00 0.30 0.30 99 1004.3
20260506193710 15 175 4.8 12.9 0.18 0.30 0.30 99 1004.5
20260506193202 15 184 4.8 9.7 0.18 0.30 0.30 99 1004.3
20260506192658 15 180 4.8 8.0 0.00 0.28 0.28 99 1004.3
20260506192154 15 171 8.0 14.5 0.00 0.28 0.28 99 1004.7
20260506191652 15 185 3.2 8.0 0.00 0.28 0.28 98 1005.0
20260506191148 15 190 4.8 17.7 0.13 0.28 0.28 98 1004.7
20260506190645 15 222 16.1 27.4 0.30 0.28 0.28 98 1005.1
20260506190142 15 182 11.3 20.9 0.18 0.25 0.25 99 1005.2
20260506185639 15 183 8.0 14.5 0.13 0.23 0.23 98 1005.2
20260506185135 15 203 4.8 16.1 0.30 0.23 0.23 98 1005.4
20260506184632 16 229 3.2 8.0 0.13 0.18 0.18 97 1005.2
20260506184130 16 172 8.0 12.9 0.30 0.18 0.18 96 1005.3
20260506183626 16 245 1.6 14.5 0.30 0.15 0.15 96 1005.1
20260506183122 16 179 11.3 16.1 0.30 0.13 0.13 95 1005.5
20260506182620 16 259 6.4 11.3 0.18 0.10 0.10 95 1005.4
20260506182117 16 199 0.0 4.8 0.13 0.08 0.08 95 1005.6
20260506181615 16 206 4.8 8.0 0.30 0.08 0.08 93 1005.5
20260506181112 16 185 3.2 8.0 0.18 0.05 0.05 91 1005.6
20260506180608 17 266 6.4 12.9 0.13 0.03 0.03 89 1005.6
20260506180105 17 227 1.6 8.0 0.13 0.03 0.03 86 1005.2
20260506175601 18 170 1.6 8.0 0.00 0.00 0.00 84 1005.2
20260506175057 18 247 1.6 11.3 0.00 0.00 0.00 79 1005.1
20260506174556 19 177 12.9 25.7 0.00 0.00 0.00 75 1004.8
20260506174052 20 169 12.9 14.5 0.00 0.00 0.00 73 1004.8
20260506173550 20 185 20.9 32.2 0.00 0.00 0.00 72 1004.7
20260506173046 20 167 25.7 35.4 0.00 0.00 0.00 69 1004.7
20260506172544 20 174 24.1 37.0 0.00 0.00 0.00 69 1004.7
20260506172040 20 187 14.5 20.9 0.00 0.00 0.00 69 1004.8
20260506171537 20 167 16.1 25.7 0.00 0.00 0.00 69 1005.1
20260506171034 20 183 12.9 33.8 0.00 0.00 0.00 69 1005.0
20260506170532 20 169 27.4 33.8 0.00 0.00 0.00 69 1005.3
20260506170024 20 187 9.7 25.7 0.00 0.00 0.00 70 1005.3
20260506165522 20 197 24.1 29.0 0.00 0.00 0.00 70 1005.2
20260506165018 20 184 8.0 11.3 0.00 0.00 0.00 71 1005.5
20260506164515 20 171 4.8 16.1 0.00 0.00 0.00 71 1005.3
20260506164013 20 172 9.7 17.7 0.00 0.00 0.00 71 1005.2
20260506163508 20 172 12.9 16.1 0.00 0.00 0.00 72 1005.7
20260506163004 20 192 9.7 12.9 0.00 0.00 0.00 73 1005.6
20260506162501 20 162 3.2 8.0 0.00 0.00 0.00 73 1006.0
20260506161958 20 183 6.4 12.9 0.00 0.00 0.00 74 1006.0
20260506161455 19 190 4.8 9.7 0.00 0.00 0.00 74 1006.2
20260506160952 19 169 11.3 14.5 0.00 0.00 0.00 74 1006.2
20260506160450 19 190 11.3 20.9 0.00 0.00 0.00 74 1006.5
20260506155947 19 223 4.8 16.1 0.00 0.00 0.00 75 1006.6
20260506155444 19 158 9.7 25.7 0.00 0.00 0.00 75 1006.6
20260506153611 18 213 11.3 22.5 0.00 0.00 0.00 76 1007.0
20260506153108 18 183 9.7 16.1 0.00 0.00 0.00 76 1007.0
20260506152605 18 181 9.7 22.5 0.00 0.00 0.00 77 1007.2
20260506152103 18 194 9.7 22.5 0.00 0.00 0.00 77 1007.0
20260506151601 18 180 14.5 16.1 0.00 0.00 0.00 76 1007.0
20260506151058 19 172 8.0 12.9 0.00 0.00 0.00 76 1006.7
20260506150554 19 243 1.6 16.1 0.00 0.00 0.00 77 1006.8
20260506150051 19 195 8.0 14.5 0.00 0.00 0.00 76 1007.0
20260506145548 18 239 6.4 16.1 0.00 0.00 0.00 77 1007.1
20260506145046 18 205 6.4 14.5 0.00 0.00 0.00 77 1006.9
20260506144542 18 186 11.3 16.1 0.00 0.00 0.00 77 1006.8
20260506144039 18 178 11.3 11.3 0.00 0.00 0.00 78 1006.7
20260506143537 18 187 8.0 14.5 0.00 0.00 0.00 79 1006.7
20260506143035 18 182 14.5 16.1 0.00 0.00 0.00 79 1006.9
20260506142533 17 205 9.7 12.9 0.00 0.00 0.00 80 1006.9
20260506142031 17 179 11.3 20.9 0.00 0.00 0.00 80 1006.7
20260506141528 17 208 8.0 16.1 0.00 0.00 0.00 80 1006.7
20260506141026 17 154 8.0 12.9 0.00 0.00 0.00 80 1006.7
20260506140523 17 195 9.7 17.7 0.00 0.00 0.00 80 1007.0
20260506140021 17 263 8.0 14.5 0.00 0.00 0.00 80 1007.0
20260506135518 17 182 1.6 12.9 0.00 0.00 0.00 81 1007.1
20260506135013 17 177 12.9 24.1 0.00 0.00 0.00 81 1007.1
20260506134510 17 166 9.7 16.1 0.00 0.00 0.00 81 1006.9
20260506134006 17 166 11.3 16.1 0.00 0.00 0.00 81 1007.2
20260506133504 17 177 9.7 14.5 0.00 0.00 0.00 82 1007.3
20260506133000 17 187 12.9 17.7 0.00 0.00 0.00 82 1007.3
20260506132457 16 160 6.4 12.9 0.00 0.00 0.00 82 1007.2
20260506131955 16 172 11.3 22.5 0.00 0.00 0.00 82 1007.1
20260506131451 16 166 8.0 14.5 0.00 0.00 0.00 83 1007.2
20260506130948 16 184 8.0 12.9 0.00 0.00 0.00 83 1007.3
20260506130445 16 177 9.7 12.9 0.00 0.00 0.00 83 1007.1
20260506125942 16 190 11.3 12.9 0.00 0.00 0.00 83 1007.2
20260506125441 16 201 9.7 20.9 0.00 0.00 0.00 83 1007.2
20260506124938 16 180 12.9 17.7 0.00 0.00 0.00 83 1007.2
20260506124436 16 169 14.5 16.1 0.00 0.00 0.00 83 1007.2
20260506123934 16 187 14.5 17.7 0.00 0.00 0.00 83 1007.2
20260506123431 16 174 9.7 20.9 0.00 0.00 0.00 84 1007.0
20260506122929 16 147 12.9 16.1 0.00 0.00 0.00 83 1007.2
20260506122425 16 168 12.9 22.5 0.00 0.00 0.00 83 1007.1
20260506121924 16 176 12.9 17.7 0.00 0.00 0.00 83 1007.3
20260506121420 16 170 14.5 17.7 0.00 0.00 0.00 83 1007.3
20260506120917 16 166 11.3 14.5 0.00 0.00 0.00 83 1007.5
20260506120415 16 178 8.0 20.9 0.00 0.00 0.00 84 1007.4
20260506115912 15 181 11.3 14.5 0.00 0.00 0.00 84 1007.3
20260506115410 15 175 6.4 14.5 0.00 0.00 0.00 84 1007.6
20260506114908 15 155 12.9 17.7 0.00 0.00 0.00 84 1007.8
20260506114405 15 175 8.0 16.1 0.00 0.00 0.00 84 1007.5
20260506113904 15 176 8.0 16.1 0.00 0.00 0.00 84 1007.6
20260506113401 15 174 8.0 14.5 0.00 0.00 0.00 84 1007.2
20260506112857 15 164 11.3 14.5 0.00 0.00 0.00 84 1007.4
20260506112355 15 169 11.3 20.9 0.00 0.00 0.00 85 1007.9
20260506111852 15 168 12.9 16.1 0.00 0.00 0.00 85 1007.9
20260506111350 15 182 11.3 16.1 0.00 0.00 0.00 85 1007.7
20260506110847 15 173 9.7 12.9 0.00 0.00 0.00 85 1007.8
20260506110344 15 165 11.3 17.7 0.00 0.00 0.00 85 1008.0
20260506105841 15 169 9.7 14.5 0.00 0.00 0.00 86 1007.9
20260506105338 15 166 12.9 17.7 0.00 0.00 0.00 85 1007.7
20260506104835 14 177 9.7 14.5 0.00 0.00 0.00 85 1007.9
20260506104333 15 187 9.7 14.5 0.00 0.00 0.00 85 1007.9
20260506103830 15 188 12.9 20.9 0.00 0.00 0.00 85 1007.8
20260506103327 14 177 11.3 14.5 0.00 0.00 0.00 85 1007.7
20260506102825 14 207 11.3 20.9 0.00 0.00 0.00 85 1007.6
20260506102323 14 190 8.0 16.1 0.00 0.00 0.00 84 1007.6
20260506101820 14 177 11.3 12.9 0.00 0.00 0.00 84 1007.7
20260506101315 14 197 8.0 12.9 0.00 0.00 0.00 83 1007.4
20260506100814 14 187 9.7 12.9 0.00 0.00 0.00 83 1007.3
20260506100312 14 251 3.2 9.7 0.00 0.00 0.00 83 1007.6
20260506095810 14 175 8.0 8.0 0.00 0.00 0.00 83 1007.6
20260506095306 15 184 4.8 11.3 0.00 0.00 0.00 82 1007.4
20260506094803 15 181 9.7 12.9 0.00 0.00 0.00 82 1007.4
20260506094302 15 179 9.7 11.3 0.00 0.00 0.00 82 1007.3
20260506093800 15 174 9.7 12.9 0.00 0.00 0.00 81 1007.6
20260506093256 15 186 8.0 11.3 0.00 0.00 0.00 81 1007.3
20260506092755 15 185 8.0 12.9 0.00 0.00 0.00 80 1007.3
20260506092252 15 190 6.4 11.3 0.00 0.00 0.00 81 1007.4
20260506091749 15 191 4.8 11.3 0.00 0.00 0.00 80 1007.3
20260506091247 15 199 6.4 12.9 0.00 0.00 0.00 80 1007.3
20260506090744 15 189 6.4 8.0 0.00 0.00 0.00 80 1007.3
20260506090241 15 177 3.2 4.8 0.00 0.00 0.00 80 1007.3
20260506085738 15 235 3.2 8.0 0.00 0.00 0.00 79 1007.3
20260506085234 15 181 4.8 9.7 0.00 0.00 0.00 80 1007.5
20260506084731 15 178 8.0 12.9 0.00 0.00 0.00 79 1007.6
20260506084227 15 198 4.8 9.7 0.00 0.00 0.00 79 1007.7
20260506083724 15 171 6.4 11.3 0.00 0.00 0.00 78 1007.5
20260506083222 15 196 6.4 9.7 0.00 0.00 0.00 78 1007.4
20260506082719 15 174 4.8 11.3 0.00 0.00 0.00 77 1007.3
20260506082215 15 185 6.4 9.7 0.00 0.00 0.00 77 1007.3
20260506081713 15 199 9.7 14.5 0.00 0.00 0.00 77 1007.2
20260506081210 15 172 8.0 11.3 0.00 0.00 0.00 77 1006.8
20260506080708 16 178 8.0 12.9 0.00 0.00 0.00 76 1007.3
20260506080204 16 227 9.7 16.1 0.00 0.00 0.00 76 1007.3
20260506073148 16 169 9.7 12.9 0.00 0.00 0.00 76 1007.4
20260506072644 16 222 6.4 12.9 0.00 0.00 0.00 76 1007.4
20260506072143 16 201 4.8 12.9 0.00 0.00 0.00 76 1007.2
20260506071640 16 162 4.8 14.5 0.00 0.00 0.00 76 1007.5
20260506071137 16 193 8.0 11.3 0.00 0.00 0.00 76 1007.2
20260506070634 16 164 9.7 16.1 0.00 0.00 0.00 75 1007.1
20260506070131 16 179 11.3 16.1 0.00 0.00 0.00 74 1007.1
20260506062109 16 224 11.3 14.5 0.00 0.00 0.00 75 1006.8
20260506061604 16 166 9.7 14.5 0.00 0.00 0.00 75 1006.7
20260506061102 16 182 11.3 14.5 0.00 0.00 0.00 75 1006.9